Santa Fe, NM

11:26 PM MDT on July 20, 2017 (GMT -0600)
Santa Fe Municipal

Weather History for KSAF - October, 2012

Change the Weather History Date:

Thursday, October 11, 2012

  Actual Average Record
Temperature  
Mean Temperature 59 °F -  
Max Temperature 77 °F 77 °F 82 °F (2015)
Min Temperature 43 °F 33 °F 26 °F (2001)
Degree Days  
Heating Degree Days 6    
Growing Degree Days 9 (Base 50)    
Moisture  
Dew Point 31 °F    
Average Humidity 35    
Maximum Humidity 56    
Minimum Humidity 17    
Precipitation  
Precipitation 0.00 in - - ()
Sea Level Pressure  
Sea Level Pressure 29.95 in    
Wind  
Wind Speed 5 mph (WSW)    
Max Wind Speed 15 mph    
Max Gust Speed 22 mph    
Visibility 10 miles    
Events      
Averages and records for this station are not official NWS values.
T = Trace of Precipitation, MM = Missing Value Source: NWS Daily Summary

Daily Weather History Graph

Daily Weather History Graph

Search for Another Location

Airport or City:

Trip Planner

Search our weather history database for the weather conditions in past years. The results will help you decide how hot, cold, wet, or windy it might be!

Date:

Astronomy

Oct. 11, 2012 Rise Set
Actual Time 7:07 AM MDT 6:33 PM MDT
Civil Twilight 6:42 AM MDT 6:59 PM MDT
Nautical Twilight 6:12 AM MDT 7:28 PM MDT
Astronomical Twilight 5:43 AM MDT 7:58 PM MDT
Moon 2:57 AM MDT (10/11) 4:04 PM MDT (10/11)
Length of Visible Light 12h 16m
Length of Day
11h 25m
Waning Crescent, 18% of the Moon is Illuminated
Oct 11
Waning Crescent
Oct 15
New
Oct 21
First Quarter
Oct 29
Full
Nov 6
Last Quarter

Hourly Weather History & Observations

Time (MDT) Temp. Windchill Dew Point Humidity Pressure Visibility Wind Dir Wind Speed Gust Speed Precip Events Conditions
12:53 AM 48.9 °F - 28.0 °F 44% 29.95 in 10.0 mi NNW 3.5 mph - N/A   Clear
1:53 AM 50.0 °F - 28.9 °F 44% 29.94 in 10.0 mi NNW 3.5 mph - N/A   Clear
2:53 AM 48.9 °F - 28.0 °F 44% 29.93 in 10.0 mi NNW 3.5 mph - N/A   Clear
3:53 AM 48.9 °F - 28.0 °F 44% 29.92 in 10.0 mi Calm Calm - N/A   Clear
4:53 AM 46.0 °F - 27.0 °F 47% 29.93 in 10.0 mi Calm Calm - N/A   Clear
5:53 AM 43.0 °F 38.8 °F 28.0 °F 56% 29.97 in 10.0 mi NNE 6.9 mph - N/A   Mostly Cloudy
6:53 AM 44.1 °F 39.5 °F 28.0 °F 53% 29.99 in 10.0 mi North 8.1 mph - N/A   Clear
7:53 AM 50.0 °F - 30.0 °F 46% 29.98 in 10.0 mi Calm Calm - N/A   Partly Cloudy
8:53 AM 57.9 °F - 30.0 °F 35% 30.00 in 10.0 mi North 4.6 mph - N/A   Clear
9:53 AM 62.1 °F - 30.0 °F 30% 30.01 in 10.0 mi Variable 3.5 mph - N/A   Clear
10:53 AM 66.9 °F - 28.9 °F 24% 30.00 in 10.0 mi Calm Calm - N/A   Clear
11:53 AM 71.1 °F - 30.0 °F 22% 29.95 in 10.0 mi South 5.8 mph - N/A   Clear
12:53 PM 75.0 °F - 30.9 °F 20% 29.94 in 10.0 mi SW 8.1 mph - N/A   Clear
1:53 PM 73.9 °F - 32.0 °F 21% 29.91 in 10.0 mi WSW 8.1 mph 16.1 mph N/A   Partly Cloudy
2:53 PM 75.9 °F - 30.9 °F 19% 29.89 in 10.0 mi SW 8.1 mph - N/A   Clear
4:53 PM 75.0 °F - 27.0 °F 17% 29.90 in 10.0 mi WSW 15.0 mph 18.4 mph N/A   Mostly Cloudy
5:53 PM 72.0 °F - 30.9 °F 22% 29.93 in 10.0 mi WSW 15.0 mph 21.9 mph N/A   Partly Cloudy
6:53 PM 69.1 °F - 34.0 °F 27% 29.96 in 10.0 mi South 9.2 mph - N/A   Partly Cloudy
7:53 PM 66.9 °F - 34.0 °F 30% 29.97 in 10.0 mi SSW 4.6 mph - N/A   Partly Cloudy
8:53 PM 63.0 °F - 39.9 °F 43% 29.96 in 10.0 mi SSE 6.9 mph - N/A   Clear
10:53 PM 60.1 °F - 43.0 °F 53% 29.97 in 10.0 mi SE 6.9 mph - N/A   Clear